| time (UTC) | temp F | wind direction | speed knots | gust knots | rain 1hr in | rain 24hr in | rain mn in | humidity % | barometer mb |
| 20260505194503 | 85 | 210 | 13.9 | 0.0 | 0.00 | 0.00 | 0.00 | 63 | 1006.3 |
| 20260505194003 | 85 | 187 | 10.4 | 0.0 | 0.00 | 0.00 | 0.00 | 63 | 1006.4 |
| 20260505193503 | 85 | 211 | 11.3 | 0.0 | 0.00 | 0.00 | 0.00 | 62 | 1006.5 |
| 20260505193003 | 84 | 179 | 14.8 | 0.0 | 0.00 | 0.00 | 0.00 | 62 | 1006.5 |
| 20260505192503 | 84 | 177 | 11.3 | 0.0 | 0.00 | 0.00 | 0.00 | 64 | 1006.7 |
| 20260505192003 | 84 | 170 | 13.0 | 0.0 | 0.00 | 0.00 | 0.00 | 63 | 1006.8 |
| 20260505191003 | 84 | 187 | 12.2 | 0.0 | 0.00 | 0.00 | 0.00 | 63 | 1006.8 |
| 20260505190503 | 84 | 189 | 13.9 | 0.0 | 0.00 | 0.00 | 0.00 | 63 | 1006.8 |
| 20260505185503 | 83 | 208 | 13.0 | 0.0 | 0.00 | 0.00 | 0.00 | 65 | 1006.8 |
| 20260505184503 | 84 | 184 | 11.3 | 0.0 | 0.00 | 0.00 | 0.00 | 64 | 1006.8 |
| 20260505184003 | 84 | 196 | 11.3 | 0.0 | 0.00 | 0.00 | 0.00 | 64 | 1006.8 |
| 20260505183503 | 83 | 200 | 14.8 | 0.0 | 0.00 | 0.00 | 0.00 | 64 | 1006.8 |
| 20260505183003 | 83 | 207 | 13.0 | 0.0 | 0.00 | 0.00 | 0.00 | 65 | 1006.8 |
| 20260505182503 | 84 | 177 | 14.8 | 0.0 | 0.00 | 0.00 | 0.00 | 64 | 1006.8 |
| 20260505182003 | 83 | 195 | 13.0 | 0.0 | 0.00 | 0.00 | 0.00 | 66 | 1006.9 |
| 20260505181503 | 83 | 210 | 13.0 | 0.0 | 0.00 | 0.00 | 0.00 | 65 | 1006.9 |
| 20260505181003 | 83 | 198 | 14.8 | 0.0 | 0.00 | 0.00 | 0.00 | 65 | 1007.1 |
| 20260505180503 | 83 | 211 | 15.6 | 0.0 | 0.00 | 0.00 | 0.00 | 66 | 1007.1 |
| 20260505180003 | 82 | 199 | 11.3 | 0.0 | 0.00 | 0.00 | 0.00 | 68 | 1007.2 |
| 20260505175503 | 82 | 186 | 13.0 | 0.0 | 0.00 | 0.00 | 0.00 | 68 | 1007.2 |
| 20260505174503 | 82 | 201 | 11.3 | 0.0 | 0.00 | 0.00 | 0.00 | 69 | 1007.3 |
| 20260505174003 | 81 | 196 | 14.8 | 0.0 | 0.00 | 0.00 | 0.00 | 69 | 1007.4 |
| 20260505173503 | 82 | 173 | 13.9 | 0.0 | 0.00 | 0.00 | 0.00 | 68 | 1007.5 |
| 20260505173003 | 82 | 180 | 11.3 | 0.0 | 0.00 | 0.00 | 0.00 | 68 | 1007.5 |
| 20260505172503 | 81 | 178 | 12.2 | 0.0 | 0.00 | 0.00 | 0.00 | 69 | 1007.5 |
| 20260505172003 | 81 | 180 | 13.0 | 0.0 | 0.00 | 0.00 | 0.00 | 70 | 1007.5 |
| 20260505171003 | 81 | 195 | 11.3 | 0.0 | 0.00 | 0.00 | 0.00 | 72 | 1007.7 |
| 20260505170503 | 81 | 222 | 12.2 | 0.0 | 0.00 | 0.00 | 0.00 | 70 | 1007.6 |
| 20260505170003 | 81 | 182 | 13.0 | 0.0 | 0.00 | 0.00 | 0.00 | 71 | 1007.6 |
| 20260505165503 | 80 | 223 | 12.2 | 0.0 | 0.00 | 0.00 | 0.00 | 73 | 1007.6 |
| 20260505165003 | 80 | 177 | 13.9 | 0.0 | 0.00 | 0.00 | 0.00 | 72 | 1007.6 |
| 20260505164503 | 79 | 190 | 15.6 | 0.0 | 0.00 | 0.00 | 0.00 | 73 | 1007.8 |
| 20260505164003 | 80 | 173 | 13.0 | 0.0 | 0.00 | 0.00 | 0.00 | 73 | 1007.8 |
| 20260505163003 | 79 | 185 | 13.0 | 0.0 | 0.00 | 0.00 | 0.00 | 74 | 1007.8 |
| 20260505162503 | 79 | 195 | 13.0 | 0.0 | 0.00 | 0.00 | 0.00 | 75 | 1007.8 |
| 20260505162003 | 78 | 184 | 11.3 | 0.0 | 0.00 | 0.00 | 0.00 | 76 | 1007.9 |
| 20260505160503 | 77 | 192 | 10.4 | 0.0 | 0.00 | 0.00 | 0.00 | 79 | 1008.0 |
| 20260505153003 | 75 | 177 | 8.7 | 0.0 | 0.00 | 0.00 | 0.00 | 83 | 1007.9 |
| 20260505152503 | 74 | 175 | 8.7 | 0.0 | 0.00 | 0.00 | 0.00 | 85 | 1007.9 |
| 20260505152003 | 74 | 189 | 12.2 | 0.0 | 0.00 | 0.00 | 0.00 | 85 | 1007.9 |
| 20260505151503 | 74 | 176 | 9.6 | 0.0 | 0.00 | 0.00 | 0.00 | 84 | 1007.9 |
| 20260505151003 | 74 | 176 | 9.6 | 0.0 | 0.00 | 0.00 | 0.00 | 84 | 1007.9 |
| 20260505150503 | 74 | 184 | 11.3 | 0.0 | 0.00 | 0.00 | 0.00 | 84 | 1007.8 |
| 20260505140503 | 74 | 170 | 10.4 | 0.0 | 0.00 | 0.00 | 0.00 | 83 | 1007.5 |
| 20260505125003 | 72 | 148 | 10.4 | 0.0 | 0.00 | 0.00 | 0.00 | 85 | 1007.2 |
| 20260505124503 | 72 | 174 | 9.6 | 0.0 | 0.00 | 0.00 | 0.00 | 86 | 1007.2 |
| 20260505124002 | 72 | 159 | 10.4 | 0.0 | 0.00 | 0.00 | 0.00 | 86 | 1007.1 |
| 20260505123503 | 72 | 163 | 9.6 | 0.0 | 0.00 | 0.00 | 0.00 | 86 | 1007.1 |
| 20260505123003 | 72 | 183 | 8.7 | 0.0 | 0.00 | 0.00 | 0.00 | 86 | 1007.1 |
| 20260505122503 | 72 | 192 | 9.6 | 0.0 | 0.00 | 0.00 | 0.00 | 86 | 1007.2 |
| 20260505121503 | 71 | 173 | 7.0 | 0.0 | 0.00 | 0.00 | 0.00 | 86 | 1006.9 |
| 20260505121003 | 71 | 176 | 9.6 | 0.0 | 0.00 | 0.00 | 0.00 | 86 | 1006.6 |
| 20260505120502 | 71 | 166 | 9.6 | 0.0 | 0.00 | 0.00 | 0.00 | 86 | 1006.6 |
| 20260505120003 | 71 | 166 | 13.0 | 0.0 | 0.00 | 0.00 | 0.00 | 86 | 1006.7 |
| 20260505115503 | 71 | 167 | 11.3 | 0.0 | 0.00 | 0.00 | 0.00 | 86 | 1006.6 |
| 20260505115003 | 71 | 173 | 9.6 | 0.0 | 0.00 | 0.00 | 0.00 | 86 | 1006.9 |
| 20260505114003 | 71 | 164 | 8.7 | 0.0 | 0.00 | 0.00 | 0.00 | 86 | 1006.9 |
| 20260505113503 | 71 | 168 | 9.6 | 0.0 | 0.00 | 0.00 | 0.00 | 85 | 1006.9 |
| 20260505113003 | 71 | 181 | 8.7 | 0.0 | 0.00 | 0.00 | 0.00 | 85 | 1006.9 |
| 20260505112502 | 71 | 161 | 8.7 | 0.0 | 0.00 | 0.00 | 0.00 | 85 | 1006.8 |
| 20260505112003 | 71 | 184 | 9.6 | 0.0 | 0.00 | 0.00 | 0.00 | 85 | 1006.9 |
| 20260505111503 | 71 | 180 | 8.7 | 0.0 | 0.00 | 0.00 | 0.00 | 85 | 1006.9 |
| 20260505111002 | 71 | 197 | 9.6 | 0.0 | 0.00 | 0.00 | 0.00 | 85 | 1006.6 |
| 20260505110502 | 71 | 193 | 9.6 | 0.0 | 0.00 | 0.00 | 0.00 | 85 | 1006.6 |
| 20260505102003 | 71 | 170 | 10.4 | 0.0 | 0.00 | 0.00 | 0.00 | 84 | 1006.6 |
| 20260505101003 | 71 | 177 | 12.2 | 0.0 | 0.00 | 0.00 | 0.00 | 84 | 1006.9 |
| 20260505100503 | 71 | 173 | 10.4 | 0.0 | 0.00 | 0.00 | 0.00 | 85 | 1006.9 |
| 20260505100003 | 71 | 179 | 10.4 | 0.0 | 0.00 | 0.00 | 0.00 | 85 | 1007.0 |
| 20260505095503 | 71 | 181 | 11.3 | 0.0 | 0.00 | 0.00 | 0.00 | 85 | 1006.9 |
| 20260505095002 | 71 | 179 | 9.6 | 0.0 | 0.00 | 0.00 | 0.00 | 85 | 1006.9 |
| 20260505094503 | 71 | 168 | 11.3 | 0.0 | 0.00 | 0.00 | 0.00 | 85 | 1006.9 |
| 20260505093502 | 71 | 170 | 10.4 | 0.0 | 0.00 | 0.00 | 0.00 | 85 | 1006.9 |
| 20260505093003 | 71 | 146 | 10.4 | 0.0 | 0.00 | 0.00 | 0.00 | 85 | 1007.0 |
| 20260505092502 | 71 | 178 | 11.3 | 0.0 | 0.00 | 0.00 | 0.00 | 85 | 1006.9 |
| 20260505092002 | 71 | 178 | 9.6 | 0.0 | 0.00 | 0.00 | 0.00 | 85 | 1006.9 |
| 20260505091502 | 71 | 160 | 9.6 | 0.0 | 0.00 | 0.00 | 0.00 | 86 | 1007.0 |
| 20260505091003 | 71 | 163 | 9.6 | 0.0 | 0.00 | 0.00 | 0.00 | 85 | 1007.1 |
| 20260505090502 | 71 | 161 | 12.2 | 0.0 | 0.00 | 0.00 | 0.00 | 85 | 1006.9 |
| 20260505090003 | 71 | 177 | 10.4 | 0.0 | 0.00 | 0.00 | 0.00 | 86 | 1007.2 |
| 20260505085502 | 71 | 178 | 8.7 | 0.0 | 0.00 | 0.00 | 0.00 | 86 | 1007.0 |
| 20260505085002 | 70 | 171 | 10.4 | 0.0 | 0.00 | 0.00 | 0.00 | 86 | 1007.2 |
| 20260505084502 | 70 | 179 | 8.7 | 0.0 | 0.00 | 0.00 | 0.00 | 86 | 1007.4 |
| 20260505084002 | 70 | 169 | 9.6 | 0.0 | 0.00 | 0.00 | 0.00 | 87 | 1007.4 |
| 20260505083503 | 70 | 161 | 8.7 | 0.0 | 0.00 | 0.00 | 0.00 | 87 | 1007.4 |
| 20260505082502 | 70 | 152 | 7.8 | 0.0 | 0.00 | 0.00 | 0.00 | 87 | 1007.6 |
| 20260505082003 | 70 | 142 | 7.0 | 0.0 | 0.00 | 0.00 | 0.00 | 87 | 1007.7 |
| 20260505081502 | 70 | 151 | 7.0 | 0.0 | 0.00 | 0.00 | 0.00 | 86 | 1007.8 |
| 20260505081002 | 70 | 138 | 7.8 | 0.0 | 0.00 | 0.00 | 0.00 | 86 | 1007.8 |
| 20260505080503 | 70 | 152 | 7.0 | 0.0 | 0.00 | 0.00 | 0.00 | 86 | 1007.9 |
| 20260505080002 | 70 | 154 | 7.0 | 0.0 | 0.00 | 0.00 | 0.00 | 86 | 1007.9 |
| 20260505075503 | 70 | 151 | 7.0 | 0.0 | 0.00 | 0.00 | 0.00 | 86 | 1007.9 |
| 20260505075002 | 70 | 141 | 7.8 | 0.0 | 0.00 | 0.00 | 0.00 | 86 | 1008.0 |
| 20260505074503 | 70 | 157 | 7.8 | 0.0 | 0.00 | 0.00 | 0.00 | 86 | 1007.9 |
| 20260505074003 | 70 | 153 | 8.7 | 0.0 | 0.00 | 0.00 | 0.00 | 85 | 1007.9 |
| 20260505073502 | 70 | 148 | 7.8 | 0.0 | 0.00 | 0.00 | 0.00 | 85 | 1007.9 |
| 20260505073003 | 70 | 151 | 7.8 | 0.0 | 0.00 | 0.00 | 0.00 | 85 | 1008.1 |
| 20260505072502 | 70 | 153 | 9.6 | 0.0 | 0.00 | 0.00 | 0.00 | 85 | 1008.2 |
| 20260505072002 | 70 | 154 | 8.7 | 0.0 | 0.00 | 0.00 | 0.00 | 85 | 1008.2 |
| 20260505071503 | 70 | 149 | 8.7 | 0.0 | 0.00 | 0.00 | 0.00 | 85 | 1008.2 |
| 20260505070504 | 70 | 158 | 9.6 | 0.0 | 0.00 | 0.00 | 0.00 | 84 | 1008.4 |
| 20260505070005 | 70 | 167 | 8.7 | 0.0 | 0.00 | 0.00 | 0.00 | 84 | 1008.5 |
| 20260505065504 | 70 | 163 | 9.6 | 0.0 | 0.00 | 0.00 | 0.00 | 84 | 1008.6 |
| 20260505065004 | 70 | 153 | 8.7 | 0.0 | 0.00 | 0.00 | 0.00 | 83 | 1008.7 |
| 20260505064004 | 70 | 172 | 9.6 | 0.0 | 0.00 | 0.00 | 0.00 | 84 | 1008.7 |
| 20260505063504 | 70 | 142 | 7.8 | 0.0 | 0.00 | 0.00 | 0.00 | 84 | 1008.7 |
| 20260505063004 | 70 | 147 | 7.8 | 0.0 | 0.00 | 0.00 | 0.00 | 84 | 1008.7 |
| 20260505061004 | 70 | 159 | 8.7 | 0.0 | 0.00 | 0.00 | 0.00 | 83 | 1008.7 |
| 20260505060504 | 70 | 162 | 9.6 | 0.0 | 0.00 | 0.00 | 0.00 | 83 | 1008.5 |
| 20260505055504 | 70 | 159 | 8.7 | 0.0 | 0.00 | 0.00 | 0.00 | 83 | 1008.5 |
| 20260505055004 | 70 | 160 | 9.6 | 0.0 | 0.00 | 0.00 | 0.00 | 82 | 1008.5 |
| 20260505054004 | 70 | 156 | 11.3 | 0.0 | 0.00 | 0.00 | 0.00 | 82 | 1008.6 |
| 20260505053504 | 70 | 159 | 11.3 | 0.0 | 0.00 | 0.00 | 0.00 | 82 | 1008.6 |
| 20260505053004 | 70 | 154 | 10.4 | 0.0 | 0.00 | 0.00 | 0.00 | 82 | 1008.5 |
| 20260505052504 | 70 | 157 | 9.6 | 0.0 | 0.00 | 0.00 | 0.00 | 82 | 1008.5 |
| 20260505052004 | 70 | 160 | 11.3 | 0.0 | 0.00 | 0.00 | 0.00 | 81 | 1008.5 |
| 20260505051504 | 71 | 157 | 10.4 | 0.0 | 0.00 | 0.00 | 0.00 | 81 | 1008.6 |
| 20260505051004 | 71 | 148 | 11.3 | 0.0 | 0.00 | 0.00 | 0.00 | 80 | 1008.6 |
| 20260505050504 | 71 | 150 | 13.0 | 0.0 | 0.00 | 0.00 | 0.00 | 80 | 1008.7 |
| 20260505041504 | 72 | 154 | 12.2 | 0.0 | 0.00 | 0.00 | 0.00 | 78 | 1009.0 |
| 20260505041004 | 72 | 162 | 11.3 | 0.0 | 0.00 | 0.00 | 0.00 | 77 | 1008.9 |
| 20260505040005 | 72 | 171 | 13.9 | 0.0 | 0.00 | 0.00 | 0.00 | 77 | 1008.9 |
| 20260505035504 | 72 | 146 | 11.3 | 0.0 | 0.00 | 0.00 | 0.00 | 77 | 1008.8 |
| 20260505035004 | 72 | 159 | 13.9 | 0.0 | 0.00 | 0.00 | 0.00 | 76 | 1008.9 |
| 20260505034504 | 72 | 148 | 12.2 | 0.0 | 0.00 | 0.00 | 0.00 | 77 | 1008.7 |
| 20260505034004 | 72 | 150 | 11.3 | 0.0 | 0.00 | 0.00 | 0.00 | 77 | 1008.7 |
| 20260505033504 | 72 | 154 | 11.3 | 0.0 | 0.00 | 0.00 | 0.00 | 77 | 1008.7 |
| 20260505033004 | 72 | 142 | 7.8 | 0.0 | 0.00 | 0.00 | 0.00 | 77 | 1009.0 |
| 20260505032504 | 73 | 151 | 10.4 | 0.0 | 0.00 | 0.00 | 0.00 | 75 | 1009.0 |
| 20260505032004 | 73 | 148 | 11.3 | 0.0 | 0.00 | 0.00 | 0.00 | 74 | 1008.7 |
| 20260505031504 | 73 | 172 | 10.4 | 0.0 | 0.00 | 0.00 | 0.00 | 74 | 1008.7 |
| 20260505031004 | 74 | 145 | 12.2 | 0.0 | 0.00 | 0.00 | 0.00 | 73 | 1008.6 |
| 20260505030504 | 74 | 154 | 12.2 | 0.0 | 0.00 | 0.00 | 0.00 | 72 | 1008.7 |
| 20260505030004 | 74 | 166 | 12.2 | 0.0 | 0.00 | 0.00 | 0.00 | 72 | 1008.7 |
| 20260505025504 | 74 | 160 | 10.4 | 0.0 | 0.00 | 0.00 | 0.00 | 73 | 1008.7 |
| 20260505024504 | 74 | 149 | 10.4 | 0.0 | 0.00 | 0.00 | 0.00 | 73 | 1008.6 |
| 20260505024004 | 74 | 152 | 11.3 | 0.0 | 0.00 | 0.00 | 0.00 | 73 | 1008.5 |
| 20260505022504 | 74 | 151 | 8.7 | 0.0 | 0.00 | 0.00 | 0.00 | 72 | 1008.5 |
| 20260505022004 | 74 | 161 | 8.7 | 0.0 | 0.00 | 0.00 | 0.00 | 71 | 1008.5 |
| 20260505021504 | 74 | 156 | 9.6 | 0.0 | 0.00 | 0.00 | 0.00 | 70 | 1008.5 |
| 20260505020504 | 75 | 159 | 9.6 | 0.0 | 0.00 | 0.00 | 0.00 | 70 | 1008.5 |
| 20260505015004 | 75 | 178 | 13.0 | 0.0 | 0.00 | 0.00 | 0.00 | 68 | 1008.2 |
| 20260505014504 | 75 | 153 | 10.4 | 0.0 | 0.00 | 0.00 | 0.00 | 68 | 1008.2 |
| 20260505013504 | 76 | 168 | 8.7 | 0.0 | 0.00 | 0.00 | 0.00 | 68 | 1008.2 |
| 20260505013004 | 76 | 156 | 9.6 | 0.0 | 0.00 | 0.00 | 0.00 | 67 | 1008.2 |
| 20260505012004 | 76 | 155 | 10.4 | 0.0 | 0.00 | 0.00 | 0.00 | 67 | 1008.2 |
| 20260505011504 | 76 | 148 | 8.7 | 0.0 | 0.00 | 0.00 | 0.00 | 67 | 1008.2 |
| 20260505010504 | 77 | 160 | 12.2 | 0.0 | 0.00 | 0.00 | 0.00 | 66 | 1008.0 |
| 20260505010004 | 77 | 156 | 10.4 | 0.0 | 0.00 | 0.00 | 0.00 | 66 | 1008.0 |
| 20260505005504 | 77 | 161 | 11.3 | 0.0 | 0.00 | 0.00 | 0.00 | 65 | 1007.9 |
| 20260505005004 | 77 | 157 | 11.3 | 0.0 | 0.00 | 0.00 | 0.00 | 65 | 1007.9 |
| 20260505004504 | 77 | 150 | 11.3 | 0.0 | 0.00 | 0.00 | 0.00 | 64 | 1007.9 |
| 20260505004004 | 78 | 163 | 13.0 | 0.0 | 0.00 | 0.00 | 0.00 | 64 | 1008.0 |
| 20260505003504 | 78 | 156 | 13.0 | 0.0 | 0.00 | 0.00 | 0.00 | 63 | 1007.9 |
| 20260505003004 | 78 | 157 | 10.4 | 0.0 | 0.00 | 0.00 | 0.00 | 63 | 1008.1 |
| 20260505002504 | 78 | 165 | 13.0 | 0.0 | 0.00 | 0.00 | 0.00 | 62 | 1008.2 |
| 20260505002004 | 78 | 171 | 13.0 | 0.0 | 0.00 | 0.00 | 0.00 | 62 | 1008.2 |
| 20260505001504 | 79 | 163 | 15.6 | 0.0 | 0.00 | 0.00 | 0.00 | 61 | 1008.0 |
| 20260505001004 | 79 | 150 | 13.9 | 0.0 | 0.00 | 0.00 | 0.00 | 61 | 1008.1 |
| 20260505000504 | 79 | 156 | 14.8 | 0.0 | 0.00 | 0.00 | 0.00 | 61 | 1008.1 |
| 20260505000004 | 79 | 156 | 13.0 | 0.0 | 0.00 | 0.00 | 0.00 | 60 | 1008.2 |
| 20260504235504 | 79 | 155 | 13.9 | 0.0 | 0.00 | 0.00 | 0.00 | 59 | 1008.2 |
| 20260504234504 | 80 | 162 | 13.9 | 0.0 | 0.00 | 0.00 | 0.00 | 58 | 1008.2 |
| 20260504234004 | 80 | 181 | 13.9 | 0.0 | 0.00 | 0.00 | 0.00 | 57 | 1008.2 |
| 20260504233504 | 80 | 162 | 12.2 | 0.0 | 0.00 | 0.00 | 0.00 | 57 | 1008.3 |
| 20260504233004 | 81 | 160 | 13.0 | 0.0 | 0.00 | 0.00 | 0.00 | 56 | 1008.2 |
| 20260504232504 | 81 | 155 | 13.0 | 0.0 | 0.00 | 0.00 | 0.00 | 56 | 1008.2 |
| 20260504232004 | 80 | 154 | 13.0 | 0.0 | 0.00 | 0.00 | 0.00 | 56 | 1008.4 |
| 20260504231004 | 81 | 153 | 13.9 | 0.0 | 0.00 | 0.00 | 0.00 | 55 | 1008.3 |
| 20260504230504 | 81 | 150 | 15.6 | 0.0 | 0.00 | 0.00 | 0.00 | 53 | 1008.3 |
| 20260504225504 | 81 | 164 | 17.4 | 0.0 | 0.00 | 0.00 | 0.00 | 53 | 1008.5 |
| 20260504225004 | 82 | 155 | 15.6 | 0.0 | 0.00 | 0.00 | 0.00 | 52 | 1008.5 |
| 20260504224504 | 82 | 156 | 13.0 | 0.0 | 0.00 | 0.00 | 0.00 | 51 | 1008.6 |
| 20260504224004 | 82 | 153 | 13.9 | 0.0 | 0.00 | 0.00 | 0.00 | 52 | 1008.6 |
| 20260504223504 | 82 | 164 | 13.0 | 0.0 | 0.00 | 0.00 | 0.00 | 52 | 1008.8 |
| 20260504223004 | 82 | 176 | 16.5 | 0.0 | 0.00 | 0.00 | 0.00 | 51 | 1008.8 |
| 20260504222504 | 82 | 164 | 16.5 | 0.0 | 0.00 | 0.00 | 0.00 | 51 | 1008.6 |
| 20260504222004 | 82 | 149 | 13.0 | 0.0 | 0.00 | 0.00 | 0.00 | 51 | 1008.6 |
| 20260504221504 | 82 | 174 | 15.6 | 0.0 | 0.00 | 0.00 | 0.00 | 51 | 1008.7 |
| 20260504221004 | 82 | 171 | 14.8 | 0.0 | 0.00 | 0.00 | 0.00 | 51 | 1008.9 |
| 20260504220504 | 82 | 164 | 13.9 | 0.0 | 0.00 | 0.00 | 0.00 | 51 | 1008.9 |
| 20260504220004 | 84 | 165 | 15.6 | 0.0 | 0.00 | 0.00 | 0.00 | 47 | 1008.9 |
| 20260504215504 | 83 | 166 | 13.0 | 0.0 | 0.00 | 0.00 | 0.00 | 50 | 1009.0 |
| 20260504215004 | 83 | 170 | 12.2 | 0.0 | 0.00 | 0.00 | 0.00 | 50 | 1009.2 |
| 20260504214504 | 82 | 164 | 11.3 | 0.0 | 0.00 | 0.00 | 0.00 | 52 | 1009.2 |
| 20260504214004 | 81 | 166 | 10.4 | 0.0 | 0.00 | 0.00 | 0.00 | 52 | 1009.3 |
| 20260504213504 | 82 | 155 | 13.9 | 0.0 | 0.00 | 0.00 | 0.00 | 52 | 1009.3 |
| 20260504213004 | 82 | 169 | 14.8 | 0.0 | 0.00 | 0.00 | 0.00 | 52 | 1009.3 |
| 20260504212504 | 83 | 147 | 13.9 | 0.0 | 0.00 | 0.00 | 0.00 | 50 | 1009.6 |
| 20260504212004 | 82 | 124 | 12.2 | 0.0 | 0.00 | 0.00 | 0.00 | 52 | 1009.5 |
| 20260504211504 | 82 | 160 | 13.0 | 0.0 | 0.00 | 0.00 | 0.00 | 50 | 1009.8 |
| 20260504211004 | 82 | 189 | 13.0 | 0.0 | 0.00 | 0.00 | 0.00 | 49 | 1009.8 |
| 20260504210504 | 83 | 150 | 11.3 | 0.0 | 0.00 | 0.00 | 0.00 | 51 | 1009.8 |
| 20260504210004 | 82 | 163 | 13.9 | 0.0 | 0.00 | 0.00 | 0.00 | 50 | 1010.0 |
| 20260504205504 | 82 | 165 | 8.7 | 0.0 | 0.00 | 0.00 | 0.00 | 51 | 1010.1 |
| 20260504204504 | 82 | 142 | 10.4 | 0.0 | 0.00 | 0.00 | 0.00 | 52 | 1010.4 |
| 20260504204004 | 82 | 167 | 13.0 | 0.0 | 0.00 | 0.00 | 0.00 | 51 | 1010.4 |
| 20260504203504 | 82 | 167 | 11.3 | 0.0 | 0.00 | 0.00 | 0.00 | 52 | 1010.5 |
| 20260504203004 | 82 | 164 | 10.4 | 0.0 | 0.00 | 0.00 | 0.00 | 53 | 1010.6 |
| 20260504202504 | 82 | 152 | 12.2 | 0.0 | 0.00 | 0.00 | 0.00 | 50 | 1010.7 |
| 20260504202004 | 81 | 173 | 9.6 | 0.0 | 0.00 | 0.00 | 0.00 | 53 | 1010.8 |
| 20260504201504 | 81 | 161 | 12.2 | 0.0 | 0.00 | 0.00 | 0.00 | 50 | 1010.9 |
| 20260504201004 | 81 | 185 | 11.3 | 0.0 | 0.00 | 0.00 | 0.00 | 50 | 1010.9 |
| 20260504200504 | 81 | 156 | 14.8 | 0.0 | 0.00 | 0.00 | 0.00 | 49 | 1010.9 |
| 20260504195004 | 81 | 170 | 12.2 | 0.0 | 0.00 | 0.00 | 0.00 | 51 | 1011.4 |